Time,TemperatureF,DewpointF,PressureIn,WindDirection,WindDirectionDegrees,WindSpeedMPH,WindSpeedGustMPH,Humidity,HourlyPrecipIn,Conditions,Clouds,dailyrainin,SoftwareType,DateUTC
2013-03-30 01:23:00,56.1,37.2,29.18,SW,232,0.0,0.0,49,0.00,,---,0.00,VWS V14.00,2013-03-30 08:23:00,
2013-03-30 01:28:00,56.1,37.2,29.18,SW,232,0.0,0.0,49,0.00,,---,0.00,VWS V14.00,2013-03-30 08:28:00,
2013-03-30 01:34:00,56.1,37.2,29.18,SW,232,0.0,0.0,49,0.00,,---,0.00,VWS V14.00,2013-03-30 08:34:00,
2013-03-30 01:39:00,55.9,37.1,29.18,SW,232,0.0,0.0,49,0.00,,---,0.00,VWS V14.00,2013-03-30 08:39:00,
2013-03-30 01:44:00,55.9,37.1,29.18,SW,232,0.0,0.0,49,0.00,,---,0.00,VWS V14.00,2013-03-30 08:44:00,
2013-03-30 01:50:00,55.9,37.1,29.18,SW,232,0.0,0.0,49,0.00,,---,0.00,VWS V14.00,2013-03-30 08:50:00,
2013-03-30 01:59:00,55.9,37.1,29.18,SW,232,0.0,0.0,49,0.00,,---,0.00,VWS V14.00,2013-03-30 08:59:00,
2013-03-30 02:04:00,55.9,37.1,29.18,SW,232,0.0,0.0,49,0.00,,---,0.00,VWS V14.00,2013-03-30 09:04:00,
2013-03-30 02:09:00,55.9,37.1,29.18,SW,232,0.0,0.0,49,0.00,,---,0.00,VWS V14.00,2013-03-30 09:09:00,
2013-03-30 02:14:00,55.9,37.1,29.18,SW,232,0.0,0.0,49,0.00,,---,0.00,VWS V14.00,2013-03-30 09:14:00,
2013-03-30 02:19:00,55.8,37.4,29.18,SW,232,0.0,0.0,50,0.00,,---,0.00,VWS V14.00,2013-03-30 09:19:00,
2013-03-30 03:23:00,54.9,38.5,29.18,SW,232,0.0,0.0,54,0.00,,---,0.00,VWS V14.00,2013-03-30 10:23:00,
2013-03-30 03:29:00,54.9,38.5,29.18,SW,232,0.0,0.0,54,0.00,,---,0.00,VWS V14.00,2013-03-30 10:29:00,
2013-03-30 03:35:00,54.7,38.8,29.18,SW,232,0.0,0.0,55,0.00,,---,0.00,VWS V14.00,2013-03-30 10:35:00,
2013-03-30 03:40:00,54.5,39.1,29.18,SW,232,0.0,0.0,56,0.00,,---,0.00,VWS V14.00,2013-03-30 10:40:00,
2013-03-30 03:45:00,54.3,39.0,29.18,SW,232,0.0,0.0,56,0.00,,---,0.00,VWS V14.00,2013-03-30 10:45:00,
2013-03-30 03:51:00,54.1,39.3,29.18,SW,232,0.0,0.0,57,0.00,,---,0.00,VWS V14.00,2013-03-30 10:51:00,
2013-03-30 03:56:00,54.0,39.1,29.18,SW,232,0.0,0.0,57,0.00,,---,0.00,VWS V14.00,2013-03-30 10:56:00,
2013-03-30 04:01:00,53.8,39.4,29.18,SW,232,0.0,0.0,58,0.00,,---,0.00,VWS V14.00,2013-03-30 11:01:00,
2013-03-30 04:06:00,53.8,39.8,29.18,SW,232,0.0,0.0,59,0.00,,---,0.00,VWS V14.00,2013-03-30 11:06:00,
2013-03-30 04:11:00,53.6,39.6,29.18,SW,232,0.0,0.0,59,0.00,,---,0.00,VWS V14.00,2013-03-30 11:11:00,
2013-03-30 04:17:00,53.6,40.1,29.18,SW,232,0.0,0.0,60,0.00,,---,0.00,VWS V14.00,2013-03-30 11:17:00,
2013-03-30 04:26:00,53.4,40.3,29.18,SW,232,0.0,0.0,61,0.00,,---,0.00,VWS V14.00,2013-03-30 11:26:00,
2013-03-30 04:31:00,53.2,40.6,29.18,SW,232,0.0,0.0,62,0.00,,---,0.00,VWS V14.00,2013-03-30 11:31:00,
2013-03-30 04:36:00,53.2,40.6,29.18,SW,232,0.0,0.0,62,0.00,,---,0.00,VWS V14.00,2013-03-30 11:36:00,
2013-03-30 04:42:00,53.2,41.0,29.15,SW,232,0.0,0.0,63,0.00,,---,0.00,VWS V14.00,2013-03-30 11:42:00,
2013-03-30 04:47:00,53.2,41.0,29.15,SSW,193,0.0,0.0,63,0.00,,---,0.00,VWS V14.00,2013-03-30 11:47:00,
2013-03-30 04:53:00,53.2,41.4,29.15,SSE,159,0.0,0.0,64,0.00,,---,0.00,VWS V14.00,2013-03-30 11:53:00,
2013-03-30 04:59:00,53.2,41.4,29.15,SSE,159,0.0,0.0,64,0.00,,---,0.00,VWS V14.00,2013-03-30 11:59:00,
2013-03-30 05:12:00,53.1,41.6,29.15,SSE,159,0.0,0.0,65,0.00,,---,0.00,VWS V14.00,2013-03-30 12:12:00,
2013-03-30 05:18:00,53.1,41.6,29.15,SSE,159,0.0,0.0,65,0.00,,---,0.00,VWS V14.00,2013-03-30 12:18:00,
2013-03-30 05:23:00,53.1,41.6,29.15,SSE,159,0.0,0.0,65,0.00,,---,0.00,VWS V14.00,2013-03-30 12:23:00,
2013-03-30 05:28:00,53.1,41.6,29.15,SSE,159,0.0,0.0,65,0.00,,---,0.00,VWS V14.00,2013-03-30 12:28:00,
2013-03-30 05:33:00,53.1,42.0,29.15,SSE,159,0.0,0.0,66,0.00,,---,0.00,VWS V14.00,2013-03-30 12:33:00,
2013-03-30 05:39:00,53.1,42.0,29.15,SSE,159,0.0,0.0,66,0.00,,---,0.00,VWS V14.00,2013-03-30 12:39:00,
2013-03-30 05:45:00,53.1,42.0,29.15,SSE,159,0.0,0.0,66,0.00,,---,0.00,VWS V14.00,2013-03-30 12:45:00,
2013-03-30 05:51:00,53.1,42.0,29.15,SSE,159,0.0,0.0,66,0.00,,---,0.00,VWS V14.00,2013-03-30 12:51:00,
2013-03-30 05:56:00,53.1,42.0,29.15,SSE,159,0.0,0.0,66,0.00,,---,0.00,VWS V14.00,2013-03-30 12:56:00,
2013-03-30 06:02:00,53.1,42.0,29.15,SSE,159,0.0,0.0,66,0.00,,---,0.00,VWS V14.00,2013-03-30 13:02:00,
2013-03-30 06:07:00,53.2,42.6,29.15,SSE,159,0.0,0.0,67,0.00,,---,0.00,VWS V14.00,2013-03-30 13:07:00,
2013-03-30 06:12:00,53.1,42.0,29.18,SSE,159,0.0,0.0,66,0.00,,---,0.00,VWS V14.00,2013-03-30 13:12:00,
2013-03-30 06:18:00,53.1,42.4,29.18,SSE,159,0.0,0.0,67,0.00,,---,0.00,VWS V14.00,2013-03-30 13:18:00,
2013-03-30 06:25:00,53.1,42.4,29.18,SSE,159,0.0,0.0,67,0.00,,---,0.00,VWS V14.00,2013-03-30 13:25:00,
2013-03-30 06:30:00,53.1,42.4,29.18,SSE,159,0.0,0.0,67,0.00,,---,0.00,VWS V14.00,2013-03-30 13:30:00,
2013-03-30 06:35:00,52.9,42.2,29.18,SSE,159,0.0,0.0,67,0.00,,---,0.00,VWS V14.00,2013-03-30 13:35:00,
2013-03-30 06:42:00,52.9,42.2,29.18,SSE,159,0.0,0.0,67,0.00,,---,0.00,VWS V14.00,2013-03-30 13:42:00,
2013-03-30 06:47:00,52.9,42.2,29.18,SSE,159,0.0,0.0,67,0.00,,---,0.00,VWS V14.00,2013-03-30 13:47:00,
2013-03-30 06:53:00,52.9,42.6,29.18,SSE,159,0.0,0.0,68,0.00,,---,0.00,VWS V14.00,2013-03-30 13:53:00,
2013-03-30 06:59:00,52.9,42.6,29.18,SSE,159,0.0,0.0,68,0.00,,---,0.00,VWS V14.00,2013-03-30 13:59:00,
2013-03-30 07:05:00,53.1,42.8,29.18,SSE,159,0.0,0.0,68,0.00,,---,0.00,VWS V14.00,2013-03-30 14:05:00,
2013-03-30 07:11:00,53.1,42.8,29.18,SSE,159,0.0,0.0,68,0.00,,---,0.00,VWS V14.00,2013-03-30 14:11:00,
2013-03-30 07:17:00,53.1,42.8,29.18,SSE,159,0.0,0.0,68,0.00,,---,0.00,VWS V14.00,2013-03-30 14:17:00,
2013-03-30 07:22:00,53.1,42.8,29.18,SSE,159,0.0,0.0,68,0.00,,---,0.00,VWS V14.00,2013-03-30 14:22:00,
2013-03-30 07:27:00,52.9,42.6,29.18,SSE,159,0.0,0.0,68,0.00,,---,0.00,VWS V14.00,2013-03-30 14:27:00,
2013-03-30 07:32:00,52.9,42.6,29.18,SSE,159,0.0,0.0,68,0.00,,---,0.00,VWS V14.00,2013-03-30 14:32:00,
2013-03-30 07:38:00,53.1,42.8,29.18,WSW,247,0.0,0.0,68,0.00,,---,0.00,VWS V14.00,2013-03-30 14:38:00,
2013-03-30 07:44:00,53.1,43.2,29.18,WSW,247,0.0,0.0,69,0.00,,---,0.00,VWS V14.00,2013-03-30 14:44:00,
2013-03-30 07:49:00,53.1,43.2,29.18,WSW,247,0.0,0.0,69,0.00,,---,0.00,VWS V14.00,2013-03-30 14:49:00,
2013-03-30 07:56:00,53.1,43.2,29.18,WSW,247,0.0,0.0,69,0.00,,---,0.00,VWS V14.00,2013-03-30 14:56:00,
2013-03-30 08:02:00,53.2,43.3,29.18,WSW,247,0.0,0.0,69,0.00,,---,0.00,VWS V14.00,2013-03-30 15:02:00,
2013-03-30 08:07:00,53.2,43.7,29.18,WSW,247,0.0,0.0,70,0.00,,---,0.00,VWS V14.00,2013-03-30 15:07:00,
2013-03-30 08:13:00,53.6,43.7,29.18,WSW,249,0.0,0.0,69,0.00,,---,0.00,VWS V14.00,2013-03-30 15:13:00,
2013-03-30 08:19:00,53.8,44.2,29.18,WSW,249,0.0,0.0,70,0.00,,---,0.00,VWS V14.00,2013-03-30 15:19:00,
2013-03-30 08:24:00,54.1,44.6,29.18,WSW,249,0.0,0.0,70,0.00,,---,0.00,VWS V14.00,2013-03-30 15:24:00,
2013-03-30 08:30:00,54.5,44.9,29.21,WSW,249,0.0,0.0,70,0.00,,---,0.00,VWS V14.00,2013-03-30 15:30:00,
2013-03-30 08:36:00,54.5,44.9,29.21,WSW,249,0.0,0.0,70,0.00,,---,0.00,VWS V14.00,2013-03-30 15:36:00,
2013-03-30 08:41:00,54.7,45.1,29.21,WSW,249,0.0,0.0,70,0.00,,---,0.00,VWS V14.00,2013-03-30 15:41:00,
2013-03-30 08:47:00,54.9,45.3,29.21,WSW,249,0.0,0.0,70,0.00,,---,0.00,VWS V14.00,2013-03-30 15:47:00,
2013-03-30 08:52:00,54.9,45.3,29.21,SW,231,0.0,0.0,70,0.00,,---,0.00,VWS V14.00,2013-03-30 15:52:00,
2013-03-30 08:58:00,54.7,45.1,29.21,SW,233,0.0,0.0,70,0.00,,---,0.00,VWS V14.00,2013-03-30 15:58:00,
2013-03-30 09:03:00,54.7,45.1,29.21,WSW,242,0.0,0.0,70,0.00,,---,0.00,VWS V14.00,2013-03-30 16:03:00,
2013-03-30 09:09:00,54.7,45.1,29.21,WSW,244,0.0,0.0,70,0.00,,---,0.00,VWS V14.00,2013-03-30 16:09:00,
2013-03-30 09:14:00,54.7,45.1,29.21,WSW,244,0.0,0.0,70,0.00,,---,0.00,VWS V14.00,2013-03-30 16:14:00,
2013-03-30 09:20:00,54.7,45.1,29.21,WSW,239,0.0,0.0,70,0.00,,---,0.00,VWS V14.00,2013-03-30 16:20:00,
2013-03-30 09:25:00,54.9,45.3,29.21,WSW,239,0.0,0.0,70,0.00,,---,0.00,VWS V14.00,2013-03-30 16:25:00,
2013-03-30 09:33:00,55.2,45.6,29.21,WSW,252,0.0,0.0,70,0.00,,---,0.00,VWS V14.00,2013-03-30 16:33:00,
2013-03-30 09:39:00,55.6,45.6,29.21,SW,230,0.0,0.0,69,0.00,,---,0.00,VWS V14.00,2013-03-30 16:39:00,
2013-03-30 09:44:00,55.8,45.8,29.21,SW,230,0.0,0.0,69,0.00,,---,0.00,VWS V14.00,2013-03-30 16:44:00,
2013-03-30 09:52:00,56.1,46.1,29.21,SW,230,0.0,0.0,69,0.00,,---,0.00,VWS V14.00,2013-03-30 16:52:00,
2013-03-30 09:59:00,56.3,45.9,29.21,SW,235,0.0,0.0,68,0.00,,---,0.00,VWS V14.00,2013-03-30 16:59:00,
2013-03-30 10:04:00,56.8,46.4,29.21,SSW,208,0.0,0.0,68,0.00,,---,0.00,VWS V14.00,2013-03-30 17:04:00,
2013-03-30 10:09:00,57.0,46.6,29.21,NW,322,0.0,0.0,68,0.00,,---,0.00,VWS V14.00,2013-03-30 17:09:00,
2013-03-30 10:15:00,57.6,46.3,29.21,NW,322,0.0,0.0,66,0.00,,---,0.00,VWS V14.00,2013-03-30 17:15:00,
2013-03-30 10:20:00,57.7,46.1,29.21,NW,321,0.0,0.0,65,0.00,,---,0.00,VWS V14.00,2013-03-30 17:20:00,
2013-03-30 10:30:00,59.2,42.6,29.21,SW,225,0.0,0.0,54,0.00,,---,0.00,VWS V14.00,2013-03-30 17:30:00,
2013-03-30 11:25:00,59.2,42.6,29.21,SW,225,0.0,0.0,54,0.00,,---,0.00,VWS V14.00,2013-03-30 18:25:00,
2013-03-30 11:31:00,59.4,42.2,29.21,SW,225,0.0,0.0,53,0.00,,---,0.00,VWS V14.00,2013-03-30 18:31:00,
2013-03-30 11:36:00,59.7,42.6,29.21,SW,226,0.0,0.0,53,0.00,,---,0.00,VWS V14.00,2013-03-30 18:36:00,
2013-03-30 11:42:00,60.1,41.9,29.21,SW,234,0.0,0.0,51,0.00,,---,0.00,VWS V14.00,2013-03-30 18:42:00,
2013-03-30 11:48:00,60.6,41.9,29.21,WSW,249,0.0,0.0,50,0.00,,---,0.00,VWS V14.00,2013-03-30 18:48:00,
2013-03-30 11:57:00,61.9,41.5,29.21,SW,219,0.0,2.2,47,0.00,,---,0.00,VWS V14.00,2013-03-30 18:57:00,
2013-03-30 12:02:00,62.8,41.7,29.21,NW,325,0.0,0.0,46,0.00,,---,0.00,VWS V14.00,2013-03-30 19:02:00,
2013-03-30 12:08:00,63.1,41.5,29.21,WSW,244,0.0,0.0,45,0.00,,---,0.00,VWS V14.00,2013-03-30 19:08:00,
2013-03-30 12:17:00,63.9,41.5,29.21,SW,217,0.0,0.0,44,0.00,,---,0.00,VWS V14.00,2013-03-30 19:17:00,
2013-03-30 12:22:00,64.8,41.8,29.21,SW,219,0.0,2.2,43,0.00,,---,0.00,VWS V14.00,2013-03-30 19:22:00,
2013-03-30 12:27:00,65.5,41.8,29.21,WSW,247,0.0,0.0,42,0.00,,---,0.00,VWS V14.00,2013-03-30 19:27:00,
2013-03-30 12:32:00,66.4,42.0,29.21,West,266,0.0,0.0,41,0.00,,---,0.00,VWS V14.00,2013-03-30 19:32:00,
2013-03-30 12:38:00,67.1,40.7,29.21,SW,215,0.0,0.0,38,0.00,,---,0.00,VWS V14.00,2013-03-30 19:38:00,
2013-03-30 12:43:00,67.8,41.3,29.21,WSW,254,0.0,0.0,38,0.00,,---,0.00,VWS V14.00,2013-03-30 19:43:00,
2013-03-30 12:48:00,68.4,39.7,29.21,SSW,212,2.7,2.7,35,0.00,,---,0.00,VWS V14.00,2013-03-30 19:48:00,
2013-03-30 12:56:00,68.4,40.4,29.21,West,262,0.0,2.2,36,0.00,,---,0.00,VWS V14.00,2013-03-30 19:56:00,
2013-03-30 13:01:00,68.5,39.8,29.21,SSW,212,0.0,0.0,35,0.00,,---,0.00,VWS V14.00,2013-03-30 20:01:00,
2013-03-30 13:07:00,68.9,40.2,29.21,West,267,0.0,0.0,35,0.00,,---,0.00,VWS V14.00,2013-03-30 20:07:00,
2013-03-30 13:12:00,68.7,39.2,29.18,WNW,290,0.0,0.0,34,0.00,,---,0.00,VWS V14.00,2013-03-30 20:12:00,
2013-03-30 13:17:00,68.4,38.9,29.18,SE,140,0.0,0.0,34,0.00,,---,0.00,VWS V14.00,2013-03-30 20:17:00,
2013-03-30 13:23:00,68.4,38.9,29.18,NW,314,0.0,2.2,34,0.00,,---,0.00,VWS V14.00,2013-03-30 20:23:00,
2013-03-30 13:28:00,68.0,38.6,29.18,WSW,248,0.0,0.0,34,0.00,,---,0.00,VWS V14.00,2013-03-30 20:28:00,
2013-03-30 13:34:00,67.8,38.5,29.18,West,259,0.0,0.0,34,0.00,,---,0.00,VWS V14.00,2013-03-30 20:34:00,
2013-03-30 13:40:00,68.0,38.6,29.18,SW,227,2.2,2.2,34,0.00,,---,0.00,VWS V14.00,2013-03-30 20:40:00,
2013-03-30 13:46:00,68.0,38.6,29.18,SSE,149,0.0,0.0,34,0.00,,---,0.00,VWS V14.00,2013-03-30 20:46:00,
2013-03-30 13:51:00,68.4,38.9,29.18,West,265,0.0,0.0,34,0.00,,---,0.00,VWS V14.00,2013-03-30 20:51:00,
2013-03-30 13:57:00,69.1,39.6,29.18,SW,233,0.0,0.0,34,0.00,,---,0.00,VWS V14.00,2013-03-30 20:57:00,
2013-03-30 14:02:00,70.0,39.6,29.18,SW,236,0.0,0.0,33,0.00,,---,0.00,VWS V14.00,2013-03-30 21:02:00,
2013-03-30 14:07:00,70.9,39.6,29.18,SW,222,0.0,0.0,32,0.00,,---,0.00,VWS V14.00,2013-03-30 21:07:00,
2013-03-30 14:12:00,71.6,40.2,29.18,West,272,0.0,0.0,32,0.00,,---,0.00,VWS V14.00,2013-03-30 21:12:00,
2013-03-30 14:17:00,72.1,40.7,29.18,WSW,239,0.0,2.7,32,0.00,,---,0.00,VWS V14.00,2013-03-30 21:17:00,
2013-03-30 14:23:00,72.1,40.7,29.18,SSE,152,0.0,0.0,32,0.00,,---,0.00,VWS V14.00,2013-03-30 21:23:00,
2013-03-30 14:29:00,71.6,39.4,29.18,West,265,0.0,0.0,31,0.00,,---,0.00,VWS V14.00,2013-03-30 21:29:00,
2013-03-30 14:34:00,71.2,39.9,29.18,NW,304,0.0,0.0,32,0.00,,---,0.00,VWS V14.00,2013-03-30 21:34:00,
2013-03-30 14:40:00,71.2,39.9,29.15,SE,136,0.0,0.0,32,0.00,,---,0.00,VWS V14.00,2013-03-30 21:40:00,
2013-03-30 14:45:00,71.2,39.9,29.15,West,265,0.0,0.0,32,0.00,,---,0.00,VWS V14.00,2013-03-30 21:45:00,
2013-03-30 15:12:00,71.1,37.2,29.15,WNW,289,0.0,3.1,29,0.00,,---,0.00,VWS V14.00,2013-03-30 22:12:00,
2013-03-30 15:13:00,71.1,37.2,29.15,West,267,2.2,2.2,29,0.00,,---,0.00,VWS V14.00,2013-03-30 22:13:00,
2013-03-30 15:14:00,71.1,37.2,29.15,East,95,2.7,2.7,29,0.00,,---,0.00,VWS V14.00,2013-03-30 22:14:00,
2013-03-30 15:15:00,71.1,37.2,29.15,SSW,204,0.0,2.7,29,0.00,,---,0.00,VWS V14.00,2013-03-30 22:15:00,
2013-03-30 15:16:00,71.1,37.2,29.15,SSW,204,0.0,0.0,29,0.00,,---,0.00,VWS V14.00,2013-03-30 22:16:00,
2013-03-30 15:17:00,71.1,37.2,29.15,SSW,204,0.0,0.0,29,0.00,,---,0.00,VWS V14.00,2013-03-30 22:17:00,
2013-03-30 15:18:00,71.1,37.2,29.15,WSW,237,0.0,0.0,29,0.00,,---,0.00,VWS V14.00,2013-03-30 22:18:00,
2013-03-30 15:19:00,71.1,37.2,29.15,WSW,246,0.0,0.0,29,0.00,,---,0.00,VWS V14.00,2013-03-30 22:19:00,
2013-03-30 15:20:00,71.1,37.2,29.15,SSE,155,0.0,0.0,29,0.00,,---,0.00,VWS V14.00,2013-03-30 22:20:00,
2013-03-30 15:21:00,71.1,37.2,29.15,SSE,155,0.0,0.0,29,0.00,,---,0.00,VWS V14.00,2013-03-30 22:21:00,
2013-03-30 15:22:00,71.1,37.2,29.15,SSE,155,0.0,0.0,29,0.00,,---,0.00,VWS V14.00,2013-03-30 22:22:00,
2013-03-30 15:23:00,71.1,37.2,29.15,SSE,156,0.0,0.0,29,0.00,,---,0.00,VWS V14.00,2013-03-30 22:23:00,
2013-03-30 15:24:00,71.1,37.2,29.15,South,169,0.0,0.0,29,0.00,,---,0.00,VWS V14.00,2013-03-30 22:24:00,
2013-03-30 15:25:00,71.1,37.2,29.15,SSW,205,0.0,0.0,29,0.00,,---,0.00,VWS V14.00,2013-03-30 22:25:00,
2013-03-30 15:26:00,71.1,37.2,29.15,SSW,207,0.0,0.0,29,0.00,,---,0.00,VWS V14.00,2013-03-30 22:26:00,
2013-03-30 15:27:00,71.1,37.2,29.15,SSW,207,0.0,0.0,29,0.00,,---,0.00,VWS V14.00,2013-03-30 22:27:00,
2013-03-30 15:28:00,71.1,37.2,29.15,WSW,238,0.0,0.0,29,0.00,,---,0.00,VWS V14.00,2013-03-30 22:28:00,
2013-03-30 15:29:00,71.1,37.2,29.15,South,189,0.0,0.0,29,0.00,,---,0.00,VWS V14.00,2013-03-30 22:29:00,
2013-03-30 15:30:00,71.1,37.2,29.15,West,259,0.0,0.0,29,0.00,,---,0.00,VWS V14.00,2013-03-30 22:30:00,
2013-03-30 15:43:00,71.1,36.3,29.15,WSW,256,0.0,0.0,28,0.00,,---,0.00,VWS V14.00,2013-03-30 22:43:00,
2013-03-30 15:49:00,71.1,36.3,29.15,South,186,3.1,3.6,28,0.00,,---,0.00,VWS V14.00,2013-03-30 22:49:00,
2013-03-30 15:54:00,70.9,37.1,29.15,WNW,292,0.0,0.0,29,0.00,,---,0.00,VWS V14.00,2013-03-30 22:54:00,
2013-03-30 16:00:00,70.9,37.1,29.15,NW,317,0.0,0.0,29,0.00,,---,0.00,VWS V14.00,2013-03-30 23:00:00,
2013-03-30 16:05:00,70.7,36.9,29.15,SE,131,0.0,0.0,29,0.00,,---,0.00,VWS V14.00,2013-03-30 23:05:00,
2013-03-30 16:11:00,70.0,36.3,29.15,SSE,167,0.0,0.0,29,0.00,,---,0.00,VWS V14.00,2013-03-30 23:11:00,
2013-03-30 16:17:00,69.1,35.5,29.15,SSW,199,0.0,0.0,29,0.00,,---,0.00,VWS V14.00,2013-03-30 23:17:00,
2013-03-30 16:22:00,68.4,35.8,29.15,South,183,0.0,0.0,30,0.00,,---,0.00,VWS V14.00,2013-03-30 23:22:00,
2013-03-30 16:27:00,68.2,35.6,29.12,South,183,0.0,0.0,30,0.00,,---,0.00,VWS V14.00,2013-03-30 23:27:00,
2013-03-30 16:33:00,67.8,36.1,29.12,WSW,238,0.0,0.0,31,0.00,,---,0.00,VWS V14.00,2013-03-30 23:33:00,
2013-03-30 16:39:00,67.6,36.8,29.12,WSW,244,0.0,0.0,32,0.00,,---,0.00,VWS V14.00,2013-03-30 23:39:00,
2013-03-30 16:44:00,67.6,36.8,29.12,WSW,244,0.0,0.0,32,0.00,,---,0.00,VWS V14.00,2013-03-30 23:44:00,
2013-03-30 16:49:00,67.6,36.8,29.12,WSW,244,0.0,0.0,32,0.00,,---,0.00,VWS V14.00,2013-03-30 23:49:00,
2013-03-30 16:54:00,67.6,36.8,29.12,WSW,244,0.0,0.0,32,0.00,,---,0.00,VWS V14.00,2013-03-30 23:54:00,
2013-03-30 17:00:00,67.5,36.6,29.12,WSW,239,0.0,0.0,32,0.00,,---,0.00,VWS V14.00,2013-03-31 00:00:00,
2013-03-30 17:05:00,67.3,36.4,29.12,WSW,242,0.0,0.0,32,0.00,,---,0.00,VWS V14.00,2013-03-31 00:05:00,
2013-03-30 17:10:00,67.1,36.3,29.12,WSW,258,0.0,0.0,32,0.00,,---,0.00,VWS V14.00,2013-03-31 00:10:00,
2013-03-30 17:16:00,66.7,36.8,29.12,West,278,0.0,0.0,33,0.00,,---,0.00,VWS V14.00,2013-03-31 00:16:00,
2013-03-30 17:21:00,66.4,36.4,29.12,WSW,239,0.0,0.0,33,0.00,,---,0.00,VWS V14.00,2013-03-31 00:21:00,
2013-03-30 17:26:00,66.0,36.1,29.12,WSW,250,0.0,0.0,33,0.00,,---,0.00,VWS V14.00,2013-03-31 00:26:00,
2013-03-30 17:31:00,65.8,36.0,29.12,WSW,251,0.0,0.0,33,0.00,,---,0.00,VWS V14.00,2013-03-31 00:31:00,
2013-03-30 17:37:00,65.7,35.8,29.12,SSW,210,0.0,0.0,33,0.00,,---,0.00,VWS V14.00,2013-03-31 00:37:00,
2013-03-30 17:43:00,65.5,35.6,29.12,SE,139,0.0,0.0,33,0.00,,---,0.00,VWS V14.00,2013-03-31 00:43:00,
2013-03-30 17:48:00,65.5,35.6,29.12,SE,139,0.0,0.0,33,0.00,,---,0.00,VWS V14.00,2013-03-31 00:48:00,
2013-03-30 17:55:00,65.1,35.3,29.12,SE,139,0.0,0.0,33,0.00,,---,0.00,VWS V14.00,2013-03-31 00:55:00,
2013-03-30 18:00:00,64.9,35.2,29.12,SW,229,0.0,0.0,33,0.00,,---,0.00,VWS V14.00,2013-03-31 01:00:00,
2013-03-30 18:06:00,64.6,35.6,29.12,SW,227,0.0,0.0,34,0.00,,---,0.00,VWS V14.00,2013-03-31 01:06:00,
2013-03-30 18:22:00,64.0,35.1,29.12,West,259,0.0,2.7,34,0.00,,---,0.00,VWS V14.00,2013-03-31 01:22:00,
2013-03-30 18:29:00,63.7,34.8,29.12,SW,234,0.0,2.7,34,0.00,,---,0.00,VWS V14.00,2013-03-31 01:29:00,
2013-03-30 18:35:00,62.6,33.9,29.12,NW,319,0.0,0.0,34,0.00,,---,0.00,VWS V14.00,2013-03-31 01:35:00,
2013-03-30 19:05:00,59.5,38.8,29.12,West,263,0.0,0.0,46,0.00,,---,0.00,VWS V14.00,2013-03-31 02:05:00,
2013-03-30 19:06:00,59.5,38.8,29.12,NW,317,0.0,0.0,46,0.00,,---,0.00,VWS V14.00,2013-03-31 02:06:00,
2013-03-30 19:09:00,59.4,39.2,29.15,WNW,288,2.7,2.7,47,0.00,,---,0.00,VWS V14.00,2013-03-31 02:09:00,
2013-03-30 19:10:00,59.4,39.7,29.15,WNW,299,0.0,2.7,48,0.00,,---,0.00,VWS V14.00,2013-03-31 02:10:00,
2013-03-30 19:11:00,59.2,39.5,29.15,West,271,0.0,0.0,48,0.00,,---,0.00,VWS V14.00,2013-03-31 02:11:00,
2013-03-30 19:12:00,59.2,39.0,29.15,West,271,0.0,0.0,47,0.00,,---,0.00,VWS V14.00,2013-03-31 02:12:00,
2013-03-30 19:13:00,59.2,39.5,29.15,West,271,0.0,0.0,48,0.00,,---,0.00,VWS V14.00,2013-03-31 02:13:00,
2013-03-30 19:14:00,59.2,39.5,29.15,West,271,0.0,0.0,48,0.00,,---,0.00,VWS V14.00,2013-03-31 02:14:00,
2013-03-30 19:15:00,59.0,39.4,29.15,West,265,0.0,0.0,48,0.00,,---,0.00,VWS V14.00,2013-03-31 02:15:00,
2013-03-30 19:16:00,59.0,39.4,29.15,West,265,0.0,0.0,48,0.00,,---,0.00,VWS V14.00,2013-03-31 02:16:00,
2013-03-30 19:17:00,59.0,39.4,29.15,West,265,0.0,0.0,48,0.00,,---,0.00,VWS V14.00,2013-03-31 02:17:00,
2013-03-30 19:18:00,58.8,39.2,29.15,West,265,0.0,0.0,48,0.00,,---,0.00,VWS V14.00,2013-03-31 02:18:00,
2013-03-30 19:19:00,58.8,39.7,29.15,West,265,0.0,0.0,49,0.00,,---,0.00,VWS V14.00,2013-03-31 02:19:00,
2013-03-30 19:20:00,58.8,39.7,29.15,West,265,0.0,0.0,49,0.00,,---,0.00,VWS V14.00,2013-03-31 02:20:00,
2013-03-30 19:21:00,58.8,39.7,29.15,West,265,0.0,0.0,49,0.00,,---,0.00,VWS V14.00,2013-03-31 02:21:00,
2013-03-30 19:22:00,58.8,39.7,29.15,West,265,0.0,0.0,49,0.00,,---,0.00,VWS V14.00,2013-03-31 02:22:00,
2013-03-30 19:23:00,58.8,39.7,29.15,West,265,0.0,0.0,49,0.00,,---,0.00,VWS V14.00,2013-03-31 02:23:00,
2013-03-30 19:24:00,58.8,39.7,29.15,West,265,0.0,0.0,49,0.00,,---,0.00,VWS V14.00,2013-03-31 02:24:00,
2013-03-30 19:25:00,58.6,40.1,29.15,West,265,0.0,0.0,50,0.00,,---,0.00,VWS V14.00,2013-03-31 02:25:00,
2013-03-30 19:26:00,58.6,39.5,29.15,West,265,0.0,0.0,49,0.00,,---,0.00,VWS V14.00,2013-03-31 02:26:00,
2013-03-30 19:28:00,58.6,40.1,29.15,West,265,0.0,0.0,50,0.00,,---,0.00,VWS V14.00,2013-03-31 02:28:00,
2013-03-30 19:29:00,58.6,40.1,29.15,WSW,251,0.0,0.0,50,0.00,,---,0.00,VWS V14.00,2013-03-31 02:29:00,
2013-03-30 19:50:00,58.5,39.9,29.15,WSW,237,0.0,0.0,50,0.00,,---,0.00,VWS V14.00,2013-03-31 02:50:00,
2013-03-30 20:00:00,58.3,40.2,29.15,WSW,244,0.0,0.0,51,0.00,,---,0.00,VWS V14.00,2013-03-31 03:00:00,
2013-03-30 20:05:00,58.1,40.6,29.15,SW,224,0.0,0.0,52,0.00,,---,0.00,VWS V14.00,2013-03-31 03:05:00,
2013-03-30 20:10:00,57.9,40.4,29.15,SW,230,0.0,0.0,52,0.00,,---,0.00,VWS V14.00,2013-03-31 03:10:00,
2013-03-30 20:17:00,57.7,40.7,29.15,SSW,209,0.0,0.0,53,0.00,,---,0.00,VWS V14.00,2013-03-31 03:17:00,
2013-03-30 20:22:00,57.7,40.7,29.15,SW,216,0.0,0.0,53,0.00,,---,0.00,VWS V14.00,2013-03-31 03:22:00,
2013-03-30 21:26:00,57.4,41.8,29.15,SW,217,0.0,0.0,56,0.00,,---,0.00,VWS V14.00,2013-03-31 04:26:00,
2013-03-30 21:27:00,57.4,41.8,29.15,SW,217,0.0,0.0,56,0.00,,---,0.00,VWS V14.00,2013-03-31 04:27:00,
2013-03-30 21:33:00,57.4,41.8,29.15,SW,217,0.0,0.0,56,0.00,,---,0.00,VWS V14.00,2013-03-31 04:33:00,
2013-03-30 21:35:00,57.2,42.1,29.15,SW,217,0.0,0.0,57,0.00,,---,0.00,VWS V14.00,2013-03-31 04:35:00,
2013-03-30 21:40:00,57.2,42.1,29.15,SW,217,0.0,0.0,57,0.00,,---,0.00,VWS V14.00,2013-03-31 04:40:00,
2013-03-30 21:46:00,57.2,42.1,29.15,SW,217,0.0,0.0,57,0.00,,---,0.00,VWS V14.00,2013-03-31 04:46:00,
2013-03-30 21:52:00,57.2,42.1,29.15,SW,217,0.0,0.0,57,0.00,,---,0.00,VWS V14.00,2013-03-31 04:52:00,
2013-03-30 21:57:00,57.2,42.1,29.15,SW,217,0.0,0.0,57,0.00,,---,0.00,VWS V14.00,2013-03-31 04:57:00,
2013-03-30 22:03:00,57.0,42.4,29.15,SW,217,0.0,0.0,58,0.00,,---,0.00,VWS V14.00,2013-03-31 05:03:00,
2013-03-30 22:08:00,57.0,42.8,29.15,SW,217,0.0,0.0,59,0.00,,---,0.00,VWS V14.00,2013-03-31 05:08:00,
2013-03-30 22:14:00,56.8,42.7,29.15,SW,217,0.0,0.0,59,0.00,,---,0.00,VWS V14.00,2013-03-31 05:14:00,
2013-03-30 22:20:00,56.8,43.1,29.15,SW,217,0.0,0.0,60,0.00,,---,0.00,VWS V14.00,2013-03-31 05:20:00,
2013-03-30 22:25:00,56.8,43.5,29.15,SW,217,0.0,0.0,61,0.00,,---,0.00,VWS V14.00,2013-03-31 05:25:00,
2013-03-30 22:30:00,56.7,43.8,29.15,WSW,247,0.0,0.0,62,0.00,,---,0.00,VWS V14.00,2013-03-31 05:30:00,
2013-03-30 22:35:00,56.7,43.8,29.15,WSW,247,0.0,0.0,62,0.00,,---,0.00,VWS V14.00,2013-03-31 05:35:00,
2013-03-30 22:41:00,56.7,43.8,29.15,WSW,247,0.0,0.0,62,0.00,,---,0.00,VWS V14.00,2013-03-31 05:41:00,
2013-03-30 22:46:00,56.7,43.4,29.15,WSW,247,0.0,0.0,61,0.00,,---,0.00,VWS V14.00,2013-03-31 05:46:00,
2013-03-30 22:51:00,56.7,43.4,29.15,WSW,247,0.0,0.0,61,0.00,,---,0.00,VWS V14.00,2013-03-31 05:51:00,
2013-03-30 22:57:00,56.7,43.8,29.15,WSW,247,0.0,0.0,62,0.00,,---,0.00,VWS V14.00,2013-03-31 05:57:00,
2013-03-30 23:04:00,56.5,43.6,29.15,WSW,247,0.0,0.0,62,0.00,,---,0.00,VWS V14.00,2013-03-31 06:04:00,
2013-03-30 23:09:00,56.5,43.6,29.15,WSW,247,0.0,0.0,62,0.00,,---,0.00,VWS V14.00,2013-03-31 06:09:00,
2013-03-30 23:15:00,56.5,44.0,29.15,WSW,247,0.0,0.0,63,0.00,,---,0.00,VWS V14.00,2013-03-31 06:15:00,
2013-03-30 23:20:00,56.5,44.0,29.15,WSW,247,0.0,0.0,63,0.00,,---,0.00,VWS V14.00,2013-03-31 06:20:00,
2013-03-30 23:27:00,56.5,44.0,29.15,WSW,247,0.0,0.0,63,0.00,,---,0.00,VWS V14.00,2013-03-31 06:27:00,
2013-03-30 23:32:00,56.5,44.0,29.15,WSW,247,0.0,0.0,63,0.00,,---,0.00,VWS V14.00,2013-03-31 06:32:00,
2013-03-30 23:40:00,56.5,44.0,29.15,WSW,247,0.0,0.0,63,0.00,,---,0.00,VWS V14.00,2013-03-31 06:40:00,
2013-03-30 23:47:00,56.3,43.9,29.15,WSW,247,0.0,0.0,63,0.00,,---,0.00,VWS V14.00,2013-03-31 06:47:00,
2013-03-30 23:54:00,56.3,44.3,29.15,WSW,247,0.0,0.0,64,0.00,,---,0.00,VWS V14.00,2013-03-31 06:54:00,